Location: Jacksonville
(30.3320°N, 81.6560°W)
Time: 14:44:53
(UTC-05:00)

Envisat - Visible Passes

Search period start: 02 December 2020 00:00
Search period end: 12 December 2020 00:00
Orbit: 764 x 766 km, 98.1° (Epoch: 01 December)

Date Brightness Start Highest point End Pass type
(mag) Time Alt. Az. Time Alt. Az. Time Alt. Az.
02 Dec 3.0 06:27:43 10° N 06:32:46 69° WNW 06:37:47 10° SSW visible
03 Dec 4.1 05:51:06 10° NNE 05:55:59 47° E 06:00:51 10° S visible
03 Dec 5.8 18:40:00 10° SW 18:43:39 20° W 18:47:19 10° NW visible
04 Dec 5.7 05:15:27 10° NE 05:19:02 19° E 05:22:36 10° SE visible
04 Dec 4.1 18:01:48 10° S 18:06:42 49° W 18:11:37 10° NNW visible
05 Dec 3.0 06:16:18 10° NNE 06:21:24 89° WNW 06:26:29 10° SSW visible
06 Dec 4.6 05:39:55 10° NNE 05:44:34 36° E 05:49:12 10° SSE visible
06 Dec 5.4 18:28:01 10° SSW 18:32:12 26° W 18:36:25 10° NW visible
07 Dec 6.1 05:04:50 10° ENE 05:07:34 14° E 05:10:17 10° SE visible
07 Dec 3.2 06:41:53 10° N 06:46:44 47° WNW 06:51:34 10° SSW visible
07 Dec 3.5 17:50:17 10° S 17:55:18 66° WSW 18:00:21 10° NNW visible
08 Dec 3.3 06:04:58 10° NNE 06:10:01 70° E 06:15:04 10° S visible
08 Dec 6.1 18:55:19 10° WSW 18:57:46 14° W 19:00:15 10° WNW visible
09 Dec 5.1 05:28:50 10° NE 05:33:08 27° E 05:37:25 10° SSE visible
09 Dec 4.9 18:16:12 10° SSW 18:20:46 34° W 18:25:21 10° NNW visible
10 Dec 6.3 04:55:04 10° E 04:56:05 11° E 04:57:05 10° ESE visible
10 Dec 3.0 06:30:23 10° N 06:35:24 62° WNW 06:40:23 10° SSW visible
11 Dec 3.9 05:53:40 10° NNE 05:58:37 52° E 06:03:33 10° S visible
11 Dec 5.9 18:42:54 10° SW 18:46:18 18° W 18:49:44 10° NW visible
